Regional Weather Roundup
Issued by NWS Little Rock, AR

Home | Current Version | Previous Version | Graphics & Text | Print | Product List | Glossary On
Versions: 1 2 3 4 5 6 7 8 9 10 11 12 13 14 15 16 17 18 19 20 21 22 23 24 25 26 27 28 29 30 31
000
ASUS44 KLZK 221405
RWRLZK

WEATHER ROUNDUP FOR ARKANSAS
NATIONAL WEATHER SERVICE LITTLE ROCK AR
900 AM CDT TUE AUG 22 2017

NOTE: "FAIR" INDICATES FEW OR NO CLOUDS BELOW 12,000 FEET WITH NO
SIGNIFICANT WEATHER AND/OR OBSTRUCTIONS TO VISIBILITY.

ARZ001-003-010-029-221500-
NORTHWEST ARKANSAS

CITY           SKY/WX    TMP DP  RH WIND       PRES   REMARKS
FAYETTEVILLE   CLOUDY    78  73  84 SW6       30.10R
FORT SMITH     SUNNY     81  74  79 CALM      30.05R HX  86
HARRISON       HVY RAIN  67  66  97 NW7       30.15R FOG
BENTONVILLE    CLOUDY    72  63  73 NE26G39   30.17R
ROGERS         LGT RAIN  68  64  87 N16G23    30.18R
HIGHFILL       CLOUDY    73  68  84 N16G32    30.15R
SPRINGDALE     CLOUDY    77  73  88 W6        30.12R FOG
$$

ARZ004-005-016-221500-
NORTH CENTRAL ARKANSAS

CITY           SKY/WX    TMP DP  RH WIND       PRES   REMARKS
FLIPPIN        CLOUDY    73  61  64 NW7       30.07R
$$

ARZ040-041-221500-
WEST CENTRAL ARKANSAS

CITY           SKY/WX    TMP DP  RH WIND       PRES   REMARKS
MENA           SUNNY     82  81  94 W7        30.10S HX  95
MOUNT IDA      SUNNY     80  73  79 CALM      30.06R
$$

ARZ009-017-025-026-028-221500-
NORTHEAST ARKANSAS

CITY           SKY/WX    TMP DP  RH WIND       PRES   REMARKS
JONESBORO      MOSUNNY   82  78  88 SW12      30.03R HX  91
NEWPORT        MOSUNNY   82  76  81 SW10      30.04R HX  89
WALNUT RIDGE   CLOUDY    81  73  78 S13       30.01F HX  85
BLYTHEVILLE    SUNNY     82  76  81 SW5       30.04R HX  89
NW BLYTHEVILLE SUNNY     84  75  74 SW5       30.03S HX  92
$$

ARZ022-023-033-042-044-221500-
CENTRAL ARKANSAS

CITY           SKY/WX    TMP DP  RH WIND       PRES   REMARKS
LITTLE ROCK    MOSUNNY   81  77  88 SW8       30.05S HX  88
N LITTLE ROCK    N/A     82  75  78 SW6       30.05S HX  88
JACKSONVILLE   SUNNY     84  77  79 SW6       30.04F HX  93
CONWAY           N/A     82  75  78 W5        30.04R HX  89
SEARCY         SUNNY     81  78  91 VRB6      30.06R HX  89
HOT SPRINGS    SUNNY     82  75  79 W6        30.08R HX  89
RUSSELLVILLE   SUNNY     81  75  82 NW3       30.04S HX  87
CLINTON        FAIR      79  75  89 CALM      30.05F
$$

ARZ036-221500-
EAST ARKANSAS

CITY           SKY/WX    TMP DP  RH WIND       PRES   REMARKS
WEST MEMPHIS   SUNNY     81  76  84 SW6       30.05R HX  87
$$

ARZ050-053-066-070-073-221500-
SOUTHWEST ARKANSAS

CITY           SKY/WX    TMP DP  RH WIND       PRES   REMARKS
ARKADELPHIA    FAIR      80  77  90 CALM      30.08R HX  87
CAMDEN         SUNNY     82  73  74 NW5       30.07R HX  88
TEXARKANA      SUNNY     81  74  79 W8        30.08R HX  86
EL DORADO      SUNNY     82  75  79 VRB5      30.09R HX  89
DE QUEEN       SUNNY     79  76  90 CALM      30.05S
$$

ARZ056-057-069-221500-
SOUTHEAST ARKANSAS

CITY           SKY/WX    TMP DP  RH WIND       PRES   REMARKS
PINE BLUFF     SUNNY     81  73  76 SW8       30.07R HX  86
MONTICELLO     SUNNY     82  73  74 W8        30.08R HX  87

$$






USA.gov is the U.S. government's official web portal to all federal, state and local government web resources and services.